User: anonymous   Login
Location: Unspecified
(0.0000°N, 0.0000°E)
Time: 05:36:51
(UTC+00:00)
Language:

MOZHAYETS - Orbit

View from above orbital plane
View from above orbital plane
View from above satellite
View from above satellite

Ground track
Ground track

The orbit data is extracted from the following two-line orbital elements,

1 27560U 02054B   19083.86179102 -.00000003  00000-0  99662-5 0  9997
2 27560  98.2921 222.8682 0039469 268.3249  91.3435 14.57763694866061
Epoch (UTC): 24 March 2019 20:40:58
Eccentricity: 0.0039469
inclination: 98.2921°
perigee height: 672 km
apogee height: 728 km
right ascension of ascending node: 222.8682°
argument of perigee: 268.3249°
revolutions per day: 14.57763694
mean anomaly at epoch: 91.3435°
orbit number at epoch: 86606

The dashed part of the orbit path shows where the satellite is in the earth's shadow,  

DLR